{"data":{"norad_id":55392,"intl_designator":"2023-014B","name":"STARLINK-5085","alt_names":[],"object_type":"PAYLOAD","status":"ACTIVE","operator":null,"country":"US","launch_date":"2023-01-31","launch_site_code":"AFWTR","launch_vehicle":null,"mission":null,"orbit_class":"UNKNOWN","rcs_meters":null,"size_class":null,"mass_kg":null,"dimensions":null,"purposes":["comms"],"wikipedia_slug":null,"has_3d_model":false,"image_url":null,"decayed_at":null,"tle_current":{"epoch":"2026-05-25T03:28:44.486976Z","epoch_age_seconds":73015,"freshness":"FRESH","line1":"1 55392U 23014B   26145.14495934  .00000152  00000+0  20565-4 0  9990","line2":"2 55392  69.9993 211.5730 0003675 268.7027  91.3711 14.98332042184004","mean_motion":14.98332042,"eccentricity":0.0003675,"inclination_deg":69.9993,"raan_deg":211.573,"arg_perigee_deg":268.7027,"mean_anomaly_deg":91.3711,"bstar":2.0565e-5,"rev_number":18400,"period_min":96.106868146386,"perigee_km":569.49538266827,"apogee_km":574.6037698018,"semimajor_km":6950.186576235,"source":"CELESTRAK","updated_at":"2026-05-25T13:38:17.772004Z"}}}